[[{"header":{"parameterUnit":"m.s-1","parameterCategory":1,"la1":30.2992,"la2":30.254,"lo1":-89.0895,"lo2":-89.0443,"dy":0.0025,"dx":0.0025,"nx":19,"ny":19,"refTime":"2026-03-13T09:00:00:Z","depth":0,"parameterNumber":2,"parameterNumberName":"U-component_of_WINDS"},"data":[0,0,0,-1.4299,-1.4298,-1.4261,-1.4261,-1.4232,-1.4232,0,0,0,0,0,0,0,0,0,0,0,-1.432,-1.432,-1.4299,-1.4298,-1.4262,-1.4261,-1.4232,-1.4232,0,0,0,0,0,0,0,0,0,0,0,-1.432,-1.432,-1.432,-1.4298,-1.4262,-1.4261,-1.4232,-1.4253,0,0,0,0,0,0,0,0,0,0,-1.4286,-1.4315,-1.432,-1.432,-1.4298,-1.4262,-1.4261,-1.4254,-1.4252,-1.4255,0,-1.4261,0,-1.4246,-1.4231,-1.4231,0,0,0,-1.429,-1.4317,-1.4298,-1.432,-1.4297,-1.4262,-1.4276,-1.4253,-1.425,-1.4253,-1.4261,-1.4259,-1.4246,-1.4231,-1.423,-1.4278,-1.4279,0,0,-1.4292,-1.4318,-1.43,-1.4297,-1.4304,-1.4277,-1.4275,-1.4251,-1.4261,-1.4261,-1.4258,-1.4245,-1.423,-1.423,-1.4277,-1.4278,0,0,0,-1.4303,-1.432,-1.4301,-1.4299,-1.4291,-1.4276,-1.4273,-1.4262,-1.4254,-1.4258,-1.4245,-1.423,-1.423,-1.4277,-1.4278,-1.4332,0,0,0,-1.4304,-1.4327,-1.4303,-1.4318,-1.4292,-1.4276,-1.4286,-1.4256,-1.4252,-1.4245,-1.423,-1.423,-1.4276,-1.4277,-1.4329,-1.4352,0,0,0,-1.4318,-1.4328,-1.4326,-1.432,-1.4305,-1.4276,-1.4266,-1.4254,-1.4245,-1.4231,-1.423,-1.4276,-1.4277,-1.4326,-1.4348,-1.4372,0,0,0,-1.4341,-1.4375,-1.4328,-1.436,-1.4306,-1.431,-1.4266,-1.4267,-1.4262,-1.423,-1.4276,-1.4278,-1.4325,-1.4345,-1.437,-1.4397,-1.441,0,0,-1.4398,-1.4382,-1.44,-1.4356,-1.4376,-1.4313,-1.434,-1.431,-1.4285,-1.4282,-1.4283,-1.433,-1.4348,-1.4372,-1.4482,-1.4493,0,0,0,-1.4426,-1.4439,-1.4438,-1.4435,-1.4413,-1.4396,-1.436,-1.4349,-1.4345,-1.4289,-1.4345,-1.4355,-1.4368,-1.4379,-1.4389,-1.4398,-1.4284,-1.4284,-1.4284,-1.4543,-1.451,-1.4536,-1.4498,-1.4495,-1.4458,-1.4452,-1.4431,-1.4397,-1.4412,-1.441,-1.4481,-1.4495,-1.4502,-1.4512,-1.4422,-1.4422,-1.4423,-1.4423,-1.4622,-1.4634,-1.4591,-1.46,-1.4565,-1.4572,-1.4538,-1.4514,-1.4516,-1.4479,-1.4488,-1.445,-1.4516,-1.4523,-1.4426,-1.4426,-1.4425,-1.4425,-1.4425,-1.4694,-1.4694,-1.4681,-1.4672,-1.467,-1.4631,-1.4635,-1.4603,-1.4573,-1.4582,-1.4577,-1.4576,-1.457,-1.4582,-1.4583,-1.4583,-1.4583,-1.4583,-1.4583,-1.4773,-1.4756,-1.4764,-1.4745,-1.4739,-1.4726,-1.469,-1.4683,-1.4667,-1.4643,-1.4643,-1.4608,-1.4529,-1.4509,-1.4587,-1.4586,-1.4586,-1.4586,-1.4585,-1.4863,-1.4838,-1.485,-1.4844,-1.4819,-1.4819,-1.4779,-1.4767,-1.4757,-1.476,-1.4724,-1.4671,-1.4652,-1.4644,-1.4627,-1.4731,-1.4731,-1.4731,-1.4731,-1.4923,-1.4911,-1.4916,-1.4908,-1.4897,-1.4862,-1.4877,-1.485,-1.4818,-1.4809,-1.479,-1.4766,-1.4759,-1.4744,-1.4734,-1.4718,-1.4843,-1.4843,-1.4843,-1.4977,-1.4962,-1.498,-1.4949,-1.4928,-1.4911,-1.4923,-1.4916,-1.4875,-1.4847,-1.4802,-1.4797,-1.4757,-1.4746,-1.4715,-1.47,-1.467,0,0]},{"header":{"parameterUnit":"m.s-1","parameterCategory":1,"la1":30.2992,"la2":30.254,"lo1":-89.0895,"lo2":-89.0443,"dy":0.0025,"dx":0.0025,"nx":19,"ny":19,"refTime":"2026-03-13T09:00:00:Z","depth":0,"parameterNumber":3,"parameterNumberName":"V-component_of_WINDS"},"data":[0,0,0,1.6405,1.6406,1.6422,1.6422,1.6431,1.6431,0,0,0,0,0,0,0,0,0,0,0,1.6393,1.6393,1.6405,1.6406,1.6422,1.6422,1.6431,1.6431,0,0,0,0,0,0,0,0,0,0,0,1.6394,1.6393,1.6393,1.6406,1.6422,1.6422,1.6431,1.6423,0,0,0,0,0,0,0,0,0,0,1.6409,1.6391,1.6393,1.6393,1.6406,1.6422,1.6422,1.6423,1.6424,1.6419,0,1.6413,0,1.6422,1.6431,1.6431,0,0,0,1.6411,1.6391,1.6402,1.6393,1.6406,1.6422,1.6416,1.6423,1.6424,1.642,1.6413,1.6414,1.6423,1.6431,1.6431,1.639,1.6389,0,0,1.641,1.6392,1.6401,1.6402,1.6399,1.6415,1.6416,1.6424,1.6416,1.6413,1.6414,1.6423,1.6431,1.6431,1.639,1.639,0,0,0,1.6404,1.6391,1.6403,1.6401,1.6405,1.6416,1.6417,1.6415,1.642,1.6415,1.6423,1.6431,1.6431,1.6391,1.639,1.6353,0,0,0,1.6403,1.6388,1.6402,1.6391,1.6405,1.641,1.6408,1.642,1.6421,1.6423,1.6431,1.6431,1.6391,1.639,1.6355,1.6338,0,0,0,1.6395,1.6387,1.6387,1.639,1.6397,1.6411,1.6416,1.6421,1.6426,1.6431,1.6431,1.6392,1.6391,1.6357,1.6341,1.6323,0,0,0,1.638,1.6353,1.6386,1.6359,1.6397,1.6388,1.6417,1.641,1.641,1.6431,1.6391,1.639,1.6358,1.6343,1.6325,1.6305,1.6295,0,0,1.6336,1.6347,1.6332,1.6363,1.6343,1.6387,1.6362,1.6378,1.6393,1.639,1.6389,1.6354,1.6341,1.6324,1.6245,1.6236,0,0,0,1.6312,1.6301,1.63,1.63,1.6312,1.6322,1.6343,1.6349,1.6348,1.6388,1.6343,1.6336,1.6326,1.6318,1.6311,1.6304,1.6385,1.6385,1.6386,1.6223,1.6247,1.6224,1.625,1.6249,1.6273,1.6275,1.6288,1.6309,1.6299,1.6298,1.6247,1.6236,1.6231,1.6224,1.6289,1.6289,1.6289,1.6289,1.6161,1.615,1.6182,1.6172,1.6197,1.6188,1.6211,1.6227,1.6223,1.6249,1.6242,1.6269,1.6222,1.6217,1.6286,1.6287,1.6287,1.6287,1.6287,1.6106,1.6105,1.6114,1.6117,1.6118,1.6145,1.614,1.6162,1.6183,1.6176,1.6178,1.6179,1.6183,1.6175,1.6175,1.6175,1.6175,1.6175,1.6175,1.6045,1.6057,1.605,1.6063,1.6067,1.6075,1.61,1.6104,1.6115,1.6131,1.6132,1.6155,1.6213,1.6227,1.6172,1.6173,1.6173,1.6173,1.6173,1.5973,1.5994,1.5984,1.5988,1.6005,1.6005,1.6034,1.6042,1.6049,1.6046,1.6072,1.6111,1.6123,1.6129,1.6141,1.6067,1.6067,1.6067,1.6067,1.5927,1.5936,1.5932,1.5938,1.5946,1.5972,1.5961,1.5981,1.6004,1.601,1.6024,1.6042,1.6047,1.6056,1.6064,1.6075,1.5986,1.5986,1.5986,1.5885,1.5896,1.5882,1.5907,1.5922,1.5936,1.5926,1.5932,1.5962,1.5983,1.6016,1.6019,1.6048,1.6056,1.6077,1.6088,1.6109,0,0]}]]